sat.trackr.live / text

‹ back to catalog

STARLINK-2566

NORAD 48287 · 2021-036M

PAYLOAD ACTIVE UNKNOWN

§ Identity

Operator
Country
US
Launch date
2021-04-29
Launch site
AFETR
Launch vehicle
Mass (kg)
RCS (m²)

Purposes: comms

External: N2YO · Heavens-Above · Gunter

§ Orbital elements

Epoch: 2026-05-25T02:27:28.822752Z

Period
94.01 min
Inclination
53.1597°
Eccentricity
0.0001314
Mean motion
15.31708238 rev/d
Perigee alt
469.8 km
Apogee alt
471.6 km
Semi-major
6,848.9 km
B*
8.2230e-5
RAAN
82.4191°
Arg perigee
90.2974°
Mean anomaly
269.8178°
Rev number
28,007

§ Raw data

STARLINK-25661 48287U 21036M   26145.10241693  .00002188  00000+0  82230-4 0  99922 48287  53.1597  82.4191 0001314  90.2974 269.8178 15.31708238280072

JSON: /api/v1/satellites/48287 · /tle

For live sub-satellite position, see the globe view (requires WebGL).

§ Visibility from observer

Set your observer location to see the next 7 days of passes ≥ 10°. The values pass through the URL so the page stays shareable.

No JS? Fill the form by hand. The geolocation button needs JavaScript.